K7UHP Weather Reports


time (UTC)temp
C
wind
direction
speed
KPH
gust
KPH
rain 1hr
cm
rain 24hr
cm
rain mn
cm
humidity
%
barometer
mb
20260505035300 19 134 1.6 4.8 0.00 0.00 0.00 34 1008.5
20260505034300 19 134 3.2 4.8 0.00 0.00 0.00 33 1008.4
20260505033259 19 141 3.2 3.2 0.00 0.00 0.00 33 1008.2
20260505032258 20 108 3.2 4.8 0.00 0.00 0.00 32 1008.0
20260505031257 20 129 4.8 11.3 0.00 0.00 0.00 31 1007.9
20260505030256 20 145 3.2 9.7 0.00 0.00 0.00 29 1007.8
20260505025256 20 138 9.7 9.7 0.00 0.00 0.00 29 1007.7
20260505024255 20 126 3.2 4.8 0.00 0.00 0.00 28 1007.5
20260505023254 21 135 3.2 9.7 0.00 0.00 0.00 27 1007.4
20260505022253 21 142 8.0 9.7 0.00 0.00 0.00 26 1007.3
20260505021253 22 135 3.2 8.0 0.00 0.00 0.00 26 1007.3
20260505020252 22 151 3.2 4.8 0.00 0.00 0.00 27 1007.3
20260505015251 22 172 4.8 9.7 0.00 0.00 0.00 26 1007.3
20260505014250 23 218 0.0 3.2 0.00 0.00 0.00 25 1007.3
20260505013250 22 110 3.2 4.8 0.00 0.00 0.00 25 1007.3
20260505012249 22 152 3.2 4.8 0.00 0.00 0.00 26 1007.3
20260505011248 22 139 1.6 3.2 0.00 0.00 0.00 26 1007.3
20260505010247 22 182 1.6 4.8 0.00 0.00 0.00 26 1007.5
20260505005246 22 136 1.6 4.8 0.00 0.00 0.00 26 1007.5
20260505004245 22 227 1.6 3.2 0.00 0.00 0.00 26 1007.6
20260505003245 22 134 1.6 4.8 0.00 0.00 0.00 27 1007.6
20260505002244 22 100 3.2 4.8 0.00 0.00 0.00 27 1007.8
20260505001243 22 167 4.8 8.0 0.00 0.00 0.00 27 1007.8
20260505000243 22 121 12.9 19.3 0.00 0.00 0.00 27 1007.9
20260504235213 22 87 14.5 22.5 0.00 0.00 0.00 27 1007.9
20260504234143 22 99 12.9 19.3 0.00 0.00 0.00 29 1008.0
20260504233143 21 103 16.1 24.1 0.00 0.00 0.00 30 1008.0
20260504232112 21 102 20.9 32.2 0.00 0.00 0.00 30 1008.2
20260504231112 21 91 24.1 29.0 0.00 0.00 0.00 30 1008.3
20260504230112 22 129 20.9 37.0 0.00 0.00 0.00 29 1008.3
20260504225042 23 161 9.7 16.1 0.00 0.00 0.00 25 1008.3
20260504224042 22 263 12.9 16.1 0.00 0.00 0.00 25 1008.1
20260504223042 23 263 19.3 25.7 0.00 0.00 0.00 26 1008.0
20260504222042 22 268 14.5 19.3 0.00 0.00 0.00 28 1007.9
20260504221042 22 270 16.1 25.7 0.00 0.00 0.00 29 1007.9
20260504220012 23 298 14.5 25.7 0.00 0.00 0.00 25 1007.9
20260504215012 23 291 9.7 9.7 0.00 0.00 0.00 24 1007.9
20260504214012 23 217 3.2 4.8 0.00 0.00 0.00 23 1008.0
20260504213012 23 266 9.7 16.1 0.00 0.00 0.00 23 1008.2
20260504212011 23 265 11.3 11.3 0.00 0.00 0.00 24 1008.3
20260504211010 23 284 9.7 19.3 0.00 0.00 0.00 25 1008.4
20260504210010 23 222 8.0 11.3 0.00 0.00 0.00 25 1008.5
20260504204940 23 297 4.8 9.7 0.00 0.00 0.00 24 1008.5
20260504203910 23 291 11.3 19.3 0.00 0.00 0.00 25 1008.7
20260504202910 23 11 8.0 9.7 0.00 0.00 0.00 24 1008.9
20260504201840 23 255 0.0 1.6 0.00 0.00 0.00 25 1008.8
20260504200840 23 298 1.6 8.0 0.00 0.00 0.00 24 1008.9
20260504195840 22 245 8.0 9.7 0.00 0.00 0.00 26 1009.0
20260504194810 22 295 3.2 9.7 0.00 0.00 0.00 26 1009.0
20260504193810 22 293 9.7 14.5 0.00 0.00 0.00 27 1009.1
20260504192810 22 289 4.8 11.3 0.00 0.00 0.00 27 1009.3
20260504191810 22 303 4.8 11.3 0.00 0.00 0.00 26 1009.3
20260504190810 22 302 8.0 9.7 0.00 0.00 0.00 26 1009.4
20260504185740 22 287 8.0 11.3 0.00 0.00 0.00 25 1009.6
20260504184740 22 277 11.3 19.3 0.00 0.00 0.00 26 1009.6
20260504183740 22 286 9.7 14.5 0.00 0.00 0.00 26 1009.7
20260504182739 22 288 11.3 14.5 0.00 0.00 0.00 27 1009.9
20260504181739 22 314 9.7 11.3 0.00 0.00 0.00 26 1009.9
20260504180738 22 329 8.0 9.7 0.00 0.00 0.00 27 1010.0
20260504175737 22 296 3.2 9.7 0.00 0.00 0.00 27 1010.1
20260504174737 21 83 9.7 9.7 0.00 0.00 0.00 28 1010.2
20260504173737 21 35 1.6 4.8 0.00 0.00 0.00 29 1010.2
20260504172737 21 242 8.0 8.0 0.00 0.00 0.00 29 1010.4
20260504171737 21 223 3.2 4.8 0.00 0.00 0.00 29 1010.4
20260504170707 21 240 4.8 8.0 0.00 0.00 0.00 31 1010.4
20260504150537 18 287 4.8 4.8 0.00 0.00 0.00 41 1011.0
20260504140532 18 61 0.0 0.0 0.00 0.00 0.00 35 1011.0
20260504130527 16 120 4.8 9.7 0.00 0.00 0.00 39 1011.0
20260504110518 15 128 3.2 4.8 0.00 0.00 0.00 37 1011.0
20260504100513 14 307 3.2 4.8 0.00 0.00 0.00 50 1010.7
20260504081504 14 105 0.0 0.0 0.00 0.00 0.00 39 1009.7
20260504080503 14 100 3.2 4.8 0.00 0.00 0.00 38 1009.9
20260504050449 20 127 4.8 4.8 0.00 0.00 0.00 20 1010.3
20260504045448 20 117 4.8 8.0 0.00 0.00 0.00 20 1010.3
20260504044448 19 119 4.8 4.8 0.00 0.00 0.00 20 1010.4
20260504043447 19 105 1.6 3.2 0.00 0.00 0.00 20 1010.4
20260504042446 20 105 0.0 1.6 0.00 0.00 0.00 21 1010.4
20260504041445 20 107 3.2 3.2 0.00 0.00 0.00 21 1010.5
20260504040445 19 125 3.2 3.2 0.00 0.00 0.00 22 1010.5